Weather History for Harrison, AR

Change the Weather History Date:

Friday, November 30, 2012

  Actual Average Record
Temperature  
Mean Temperature 56 °F 42 °F  
Max Temperature 70 °F 52 °F 80 °F (1933)
Min Temperature 42 °F 33 °F 9 °F (1905)
Degree Days  
Heating Degree Days 9 23  
Month to date heating degree days 458 500  
Since 1 July heating degree days 752 764  
Cooling Degree Days 0 0  
Month to date cooling degree days 2 4  
Year to date cooling degree days 1961 1416  
Growing Degree Days 6 (Base 50)    
Moisture  
Dew Point 43 °F    
Average Humidity 67    
Maximum Humidity 86    
Minimum Humidity 47    
Precipitation  
Precipitation 0.00 in 0.13 in 3.07 in (2006)
Month to date precipitation 1.13 4.23  
Year to date precipitation 27.45 40.94  
Snow  
Snow 0.00 in 0.10 in 2.00 in (1934)
Month to date snowfall 0.0 0.4  
Since 1 July snowfall 0.0 0.5  
Since 1 September snowfall 0.0 0.5  
Snow Depth 0.00 in    
Sea Level Pressure  
Sea Level Pressure 30.11 in    
Wind  
Wind Speed 8 mph (SSE)    
Max Wind Speed 15 mph    
Max Gust Speed 18 mph    
Visibility 10 miles    
Events      
T = Trace of Precipitation, MM = Missing Value Source: NWS Daily Summary

Daily Weather History Graph

Daily Weather History Graph

Search for Another Location

Airport:

Trip Planner

Search our weather history database for the weather conditions in past years. The results will help you decide how hot, cold, wet, or windy it might be!

Date:

Astronomy

Nov. 30, 2012 Rise Set
Actual Time 7:04 AM CST 4:57 PM CST
Civil Twilight 6:36 AM CST 5:26 PM CST
Nautical Twilight 6:04 AM CST 5:57 PM CST
Astronomical Twilight 5:33 AM CST 6:28 PM CST
Moon 6:52 PM CST (11/30) 8:37 AM CST (11/30)
Length of Visible Light 10h 49m
Length of Day
9h 53m
Waning Gibbous, 96% of the Moon is Illuminated
Nov 30
Waning Gibbous
Dec 6
Last Quarter
Dec 13
New
Dec 19
First Quarter
Dec 28
Full

Hourly Weather History & Observations

Time (CST) Temp. Windchill Dew Point Humidity Pressure Visibility Wind Dir Wind Speed Gust Speed Precip Events Conditions
12:53 AM 48.9 °F - 30.9 °F 50% 30.14 in 10.0 mi ESE 5.8 mph - N/A   Clear
1:53 AM 46.9 °F - 32.0 °F 56% 30.14 in 10.0 mi SSE 8.1 mph - N/A   Clear
2:53 AM 46.9 °F - 32.0 °F 56% 30.14 in 10.0 mi SSE 6.9 mph - N/A   Clear
3:53 AM 46.9 °F - 32.0 °F 56% 30.13 in 10.0 mi SE 9.2 mph - N/A   Clear
4:53 AM 45.0 °F 40.6 °F 32.0 °F 60% 30.12 in 10.0 mi SSE 8.1 mph - N/A   Clear
5:53 AM 43.0 °F 38.8 °F 33.1 °F 68% 30.13 in 10.0 mi SSE 6.9 mph - N/A   Clear
6:53 AM 43.0 °F 39.5 °F 33.1 °F 68% 30.14 in 10.0 mi SE 5.8 mph - N/A   Clear
7:53 AM 48.9 °F - 37.0 °F 64% 30.15 in 10.0 mi SSE 6.9 mph - N/A   Clear
8:53 AM 54.0 °F - 37.9 °F 55% 30.15 in 10.0 mi SE 6.9 mph - N/A   Clear
9:53 AM 60.1 °F - 42.1 °F 51% 30.15 in 10.0 mi ESE 5.8 mph - N/A   Clear
10:53 AM 66.0 °F - 46.9 °F 50% 30.14 in 10.0 mi SSE 10.4 mph - N/A   Clear
11:53 AM 66.9 °F - 48.0 °F 51% 30.11 in 10.0 mi Variable 5.8 mph - N/A   Clear
12:53 PM 70.0 °F - 48.9 °F 47% 30.08 in 10.0 mi SSW 5.8 mph - N/A   Clear
1:53 PM 68.0 °F - 50.0 °F 52% 30.07 in 10.0 mi South 10.4 mph - N/A   Clear
2:53 PM 66.9 °F - 48.9 °F 52% 30.06 in 10.0 mi South 9.2 mph - N/A   Partly Cloudy
3:53 PM 64.0 °F - 48.0 °F 56% 30.07 in 10.0 mi South 9.2 mph - N/A   Clear
4:53 PM 60.1 °F - 46.9 °F 62% 30.09 in 10.0 mi South 6.9 mph - N/A   Clear
5:53 PM 55.4 °F - 46.4 °F 72% 30.10 in 10.0 mi SSE 5.8 mph - N/A   Clear
6:53 PM 55.0 °F - 48.0 °F 77% 30.10 in 10.0 mi SE 8.1 mph - N/A   Clear
7:53 PM 55.0 °F - 48.0 °F 77% 30.09 in 10.0 mi SE 8.1 mph - N/A   Clear
8:53 PM 55.0 °F - 50.0 °F 83% 30.09 in 9.0 mi SSE 6.9 mph - N/A   Clear
9:23 PM 55.4 °F - 51.8 °F 88% 30.10 in 8.0 mi SSE 9.2 mph - N/A   Mostly Cloudy
9:53 PM 57.2 °F - 53.6 °F 88% 30.10 in 8.0 mi South 9.2 mph - N/A   Overcast
10:53 PM 57.9 °F - 53.1 °F 84% 30.08 in 10.0 mi South 11.5 mph - N/A   Overcast
11:53 PM 57.0 °F - 52.0 °F 83% 30.08 in 10.0 mi South 8.1 mph - N/A   Mostly Cloudy